Regional Weather Roundup
Issued by NWS Wakefield, VA

Home | Current Version | Previous Version | Text Only | Print | Product List | Glossary On
Versions: 1 2 3 4 5 6 7 8 9 10 11 12 13 14 15 16 17 18 19 20 21 22 23 24 25 26 27
000
ASUS41 KAKQ 170016
RWRAKQ

REGIONAL WEATHER ROUNDUP
NATIONAL WEATHER SERVICE WAKEFIELD VA
800 PM EDT MON OCT 16 2017

Note: "fair" indicates few or no clouds below 12,000 feet with no
significant weather and/or obstructions to visibility. * = Denotes
station may not report precipitation (e.g., rain,snow,etc.),
thunder or fog.

VAZ042-051-052>054-056-170100-
NORTHERN VIRGINIA

CITY           SKY/WX    TMP DP  RH WIND       PRES   REMARKS
WASH NATIONAL  PTCLDY    59  36  42 NW9       30.19R
DULLES         CLEAR     55  36  48 NW7       30.19R
FORT BELVOIR   CLEAR     58  35  42 NW6       30.18R
QUANTICO       CLEAR     58  36  43 N9        30.19R
FREDERICKSBRG* CLEAR     58  39  49 NW5       30.18R
STAFFORD*      CLEAR     49  39  68 CALM      30.23R
WARRENTON      CLEAR     47  37  69 NW5       30.19R
CULPEPER*      CLEAR     52  35  51 CALM      30.21R
MANASSAS*      CLEAR     52  37  56 NW6       30.20R
LEESBURG*      CLEAR     54  39  58 N7        30.21R
WINCHESTER     CLEAR     46  36  66 CALM      30.21R
FRONT ROYAL*   CLEAR     54  34  47 W5        30.20R
LURAY*         CLEAR     55  36  47 NW9       30.21R
$$

VAZ048-049-060>072-079>083-170100-
CENTRAL AND SOUTH CENTRAL VIRGINIA

CITY           SKY/WX    TMP DP  RH WIND       PRES   REMARKS
RICHMOND       PTCLDY    54  46  74 CALM      30.17R
CHESTERFIELD*  NOT AVBL
PETERSBURG*    CLEAR     48  48 100 CALM      30.17R
HANOVER        CLEAR     54  44  69 N3        30.18R
TAPPAHANNOCK*  CLEAR     51  51  99 E3        30.17R
QUINTON*       FAIR      50  50 100 W6        30.16R
CHARLOTTSVILLE CLEAR     55  38  52 N5        30.21R
GORDONSVILLE*  CLEAR     52  43  71 CALM      30.19R
ORANGE*        CLEAR     46  41  81 CALM      30.20R
LOUISA*        CLEAR     54  37  54 N3        30.19R
BUMPASS*       FAIR      56  39  52 NW6       30.19R
FARMVILLE*     CLEAR     56  44  64 CALM      30.18R
CREWE*         FAIR      50  50 100 CALM      30.18R
FORT PICKETT*  FAIR      53  45  74 CALM      30.18R
CHASE CITY*    FAIR      55  45  69 CALM      30.18R
CLARKSVILLE*   FAIR      57  45  62 CALM      30.17R
SOUTH HILL*    CLEAR     52  49  88 N3        30.23R
LAWRENCEVILLE* FAIR      52  47  83 CALM      30.17R
EMPORIA*       PTCLDY    50  46  87 CALM      30.19R
$$

VAZ088>098-170100-
SOUTHEAST VIRGINIA

CITY           SKY/WX    TMP DP  RH WIND       PRES   REMARKS
NORFOLK        CLOUDY    62  46  55 N18G30    30.13R
VIRGINIA BEACH CLOUDY    61  44  53 N16G26    30.12R
NORFOLK NAVAL  MOCLDY    60  47  61 N16G29    30.16
WEST POINT*    CLOUDY    50  46  87 NW3       30.18R
SALUDA*        FAIR      58  46  65 N8        30.15R
NEWPORT NEWS   CLOUDY    55  46  71 N5        30.16R
LANGLEY AFB    CLOUDY    57  48  72 N6        30.15R
FORT EUSTIS    CLOUDY    57  44  61 N5        30.13R
WILLIAMSBURG*  CLOUDY    54  46  76 N3        30.17R
HR EXEC AP*    NOT AVBL
FRANKLIN*      CLOUDY    55  45  67 N5        30.16R
US460-WAKEFLD  CLOUDY    54  45  71 CALM      30.16R
$$

VAZ020-022-025-037-045-170100-
WEST CENTRAL AND SOUTHWEST VIRGINIA

CITY           SKY/WX    TMP DP  RH WIND       PRES   REMARKS
STAUNTON*      CLEAR     52  38  59 N7        30.24R
WAYNESBORO*    CLEAR     50  39  65 NW6       30.23R
HOT SPRINGS VA MOCLDY    43  34  70 NW6       30.23R
LYNCHBURG      CLEAR     56  37  49 NW8       30.21R
DANVILLE       CLEAR     54  43  66 N7        30.19R
SOUTH BOSTON*  FAIR      56  43  61 NW3       30.19R
MARTINSVILLE   CLEAR     47  42  84 CALM      30.24R
ROANOKE        CLEAR     53  38  56 NW12      30.25R
BLACKSBURG     CLEAR     49  38  64 CALM      30.27R
DUBLIN*        CLEAR     51  38  59 NW7       30.26R
MARION*        PTCLDY    48  34  58 CALM      30.29R
HILLSVILLE*    CLEAR     47  31  54 N12       30.23R
RICHLANDS*     FAIR      46  36  66 N6        30.27R
WISE*          CLEAR     46  37  71 N5        30.28S
ABINGDON*      PTCLDY    51  39  63 CALM      30.26R
$$

MDZ021>025-VAZ099-100-170100-
SOUTHERN MARYLAND AND THE DELMARVA PENINSULA

CITY           SKY/WX    TMP DP  RH WIND       PRES   REMARKS
PATUXENT RIVER PTCLDY    59  42  53 N10       30.15R
BAY BRIDGE APT CLEAR     61  37  41 N13G18    30.16R
LEONARDTOWN    NOT AVBL
DOVER          CLEAR     51  42  71 NW7       30.14R
GEORGETOWN     CLOUDY    53  45  74 CALM      30.15R
EASTON         CLEAR     54  45  71 CALM      30.19R
CAMBRIDGE      CLEAR     52  46  82 CALM      30.15R
SALISBURY      CLOUDY    52  46  80 N3        30.14R
OCEAN CITY     PTCLDY    52  46  80 N6        30.15R
WALLOPS ISLAND CLOUDY    54  47  77 N7        30.14R
ACCOMACK*      CLOUDY    57  47  69 N7        30.14R
$$

NCZ012>017-030>032-170100-
NORTH CENTRAL AND EASTERN NORTH CAROLINA

CITY           SKY/WX    TMP DP  RH WIND       PRES   REMARKS
ROANOKE RAPIDS FAIR      55  48  76 N6        30.16R
RALEIGH        MOCLDY    58  57  97 CALM      30.16R
ELIZABETH CITY CLOUDY    60  52  74 N13       30.12R
AHOSKIE*       PTCLDY    56  49  75 N3        30.15R
EDENTON*       CLOUDY    59  56  88 CALM      30.14R
CURRITUCK*     CLOUDY    59  51  74 N8        30.12R
KILL DEVIL HLS CLOUDY    62  52  69 N12G17    30.09R
MANTEO         CLOUDY   N/A N/A N/A N13G24    30.11R
CAPE HATTERAS  HVY RAIN  63  61  93 NE14G24   30.06R FOG
TARBORO*       NOT AVBL
GOLDSBORO      CLOUDY    59  55  87 N7        30.13R
WASHINGTON     CLOUDY    57  54  89 N5        30.13R
GREENVILLE     CLOUDY    59  55  88 N3        30.15R
NEW BERN       CLOUDY    59  53  80 NE20G33   30.12R
WILMINGTON     CLOUDY    60  53  77 N15       30.10R
$$

VAZ048-170100-
ELSEWHERE

CITY           SKY/WX    TMP DP  RH WIND       PRES   REMARKS
HARRISBURG PA  CLEAR     53  35  50 NW6       30.17R
BALTIMORE      PTCLDY    55  38  52 NW9       30.17R
ANNAPOLIS      CLEAR     59  44  57 NW6       30.16R
ANDREWS AFB    CLEAR     56  34  43 N10       30.17R
PHILADELPHIA   PTCLDY    54  36  50 N7        30.16R
HENDERSON NC   CLEAR     53  46  75 N3        30.17R
GREENSBORO     PTCLDY    56  41  57 N6        30.19R
ROCKY MOUNT    PTCLDY    55  55 100 N6        30.15R
$$

VAZ100-170100-
MARINE

STATION/POSITION TIME  TEMP    WIND        PRES    WAVE   SWELL
                       AIR SEA DIR/SP/G            HT/PER HT/PER
                 (UTC) (F)     (DEG/KT/KT) (MB)    (FT/S) (FT/S)
BRANDYWINE LGT   2348          360/ 27/ 32 1020.5R
CAPE MAY NJ      2342   58 67  350/ 10/ 15 1020.0R
LEWES DE         2348   61 67   10/ 18/ 28 1020.3R
15NM E FENWICK I 2350   60 68  330/ 23/ 29 1019.9R   6/ 5   2/10
OCEAN-CITY-INLET 2348   58 69  340/  9/ 11 1020.8R
WACHAPREAGUE VA  2348   57 68  360/  7/ 11 1020.5R
THOMAS POINT MD  0000   60 70  330/ 12/ 13   N/A
GOOSES REEF MD   2350   64     340/ 19/ 23 1013.4F
COVE POINT MD    2348   63     360/ 20/ 27 1021.5R
SOLOMONS ISLAND  2348   59 72  350/  7/ 10 1020.8R
BISHOPS HEAD MD  2348   57 67  350/  5/  7 1021.0R
PINEY POINT MD   2336           20/  6/  7   N/A
POTOMAC MD       2350   60     360/  8/ 12 1020.3R
CAMBRIDGE MD     2348   59 69              1021.7R
LEWISETTA VA     2348   61 68   10/  8/ 12 1020.9R
RAPPAHANNOCK LGT 2336          360/ 25/ 27 1020.6R
STINGRAY PT      2350   62      10/ 14/ 17 1021.1R
YORK RVR RNG VA  2336   62     350/ 15/ 19 1020.9R
YORKTOWN VA      2336   59 72  350/  9/ 12 1020.6R
JAMESTOWN VA     2350          360/  6/  6   N/A
DOMINION TERM VA 2336   60     340/  3/  8 1021.0R
KIPTOPEKE VA     2336      71   20/ 10/ 13   N/A
CAPE HENRY VA    2336   62      10/ 23/ 27   N/A
WILLOUBY STN VA  2336   61     340/ 13/ 16 1020.7R
S CRANEY ISL VA  2336   62     350/ 14/ 19 1020.2R
CAPE HENRY BUOY  2330      72                N/A     5/ 6
1ST LANDING BUOY 2350   63                 1020.1R
CAPE CHARLES BUO 2351      71                N/A     5/ 6
64NM E OF VA BCH 2350   63 69  360/ 23/ 27 1018.1R   7/ 6
DUCK PIER NC     2336   65 71   10/ 22/ 27 1018.4R
44100 DUCK FRF   2305      72                N/A     7/ 6   2/11
44056 DUCK FRF   2330      72                N/A     7/ 6   2/11
OREGON INLET NC  2336   63 74  350/ 16/ 21 1018.5R
HATTERAS NC      2336   64 76   20/ 25/ 29 1017.5R
DIAMOND SHLS NC  2350   68 81   10/ 25/ 31 1016.1R   7/ 6   2/11
CAPE LOOKOUT NC  0000   62     360/ 26/ 32 1017.6R
$$




USA.gov is the U.S. government's official web portal to all federal, state and local government web resources and services.